Погода в Дмитриевке

Россия / Тамбовская область     52°52′47″N   40°47′40″E
темп.,
°C
ветер,
м/с
пор.,
м/с
влажн.,
%
обл.,
%
осадки,
мм/ч
давл.,
гПа
погр.,
м
12 мая, ср
ср1200:00+7вюв22790 0.0 102623
03:00+6всв33815 0.0 102639
06:00+7св3787100 0.0 1025200
09:00+10всв3691100 0.4 1024376
12:00+9зсз3498100 6.8 1021259
15:00+9з249796 11.5 1020211
18:00+12ю3481100 0.0 1020711
21:00+9вюв33895 0.0 102043
13 мая, чт
чт1300:00+8в469254 0.0 1020101
03:00+7в489555 0.0 1020133
06:00+8в389130 0.0 1019173
09:00+14в4570100 0.0 1018374
12:00+18юв346533 0.0 1016820
15:00+21ю355610 0.1 10151630
18:00+19ююз246664 0.1 1015141
21:00+14ю34800 0.1 101653
14 мая, пт
пт1400:00+13ююв338399 0.0 101737
03:00+12юв3386100 0.0 101838
06:00+13вюв368530 0.0 1018145
09:00+19вюв5969100 0.0 1017483
12:00+23юв686094 0.0 10161163
15:00+25юв6856100 0.0 10151418
18:00+23ююв487458 0.0 1014299
21:00+19юв478825 0.6 1014116
15 мая, сб
сб1500:00+17юв499097 0.0 1013140
03:00+15вюв39899 0.0 1012156
06:00+15юв38875 0.7 1013213
09:00+20ю7116777 0.7 1012614
12:00+23ю56656 0.8 1013869
15:00+22ююв6106599 1.0 10131034
18:00+22ю5106799 0.0 1012387
21:00+17ю488694 0.7 1012149
16 мая, вс
вс1600:00+17юз2291100 0.0 101336
03:00+15сз22914 0.0 101313
06:00+16ссв1185100 0.0 101337
09:00+20сз11692 0.0 1014472
12:00+23зсз225986 0.0 10141203
15:00+24зюз115598 0.0 10131348
18:00+24в016140 0.1 10131158
21:00+19ссв3377100 0.1 101433